Natchitoches, LA

7:01 PM CDT on September 24, 2016 (GMT -0500)
Natchitoches Regional

Weather History for KIER - September, 2013

Change the Weather History Date:

Thursday, September 26, 2013

  Actual Average Record
Temperature  
Mean Temperature 74 °F -  
Max Temperature 91 °F 84 °F 98 °F (1954)
Min Temperature 57 °F 61 °F 44 °F (1956)
Cooling Degree Days 9    
Growing Degree Days 24 (Base 50)    
Moisture  
Dew Point 60 °F    
Average Humidity 70    
Maximum Humidity 99    
Minimum Humidity 30    
Precipitation  
Precipitation 0.00 in - - ()
Sea Level Pressure  
Sea Level Pressure 29.90 in    
Wind  
Wind Speed 1 mph (ESE)    
Max Wind Speed 8 mph    
Max Gust Speed -    
Visibility 10 miles    
Events      
Averages and records for this station are not official NWS values.
T = Trace of Precipitation, MM = Missing Value Source: NWS Daily Summary

Daily Weather History Graph

Daily Weather History Graph

Search for Another Location

Airport or City:

Trip Planner

Search our weather history database for the weather conditions in past years. The results will help you decide how hot, cold, wet, or windy it might be!

Date:

Astronomy

Sep. 26, 2013 Rise Set
Actual Time 7:03 AM CDT 7:03 PM CDT
Civil Twilight 6:38 AM CDT 7:27 PM CDT
Nautical Twilight 6:10 AM CDT 7:55 PM CDT
Astronomical Twilight 5:42 AM CDT 8:24 PM CDT
Moon No Moon Rise 1:37 PM CDT (9/26)
Length of Visible Light 12h 48m
Length of Day
12h 00m
Waning Gibbous, 54% of the Moon is Illuminated
Sep 26
Waning Gibbous
Sep 26
Last Quarter
Oct 4
New
Oct 11
First Quarter
Oct 18
Full

Hourly Weather History & Observations

Time (CDT) Temp. Heat Index Dew Point Humidity Pressure Visibility Wind Dir Wind Speed Gust Speed Precip Events Conditions
12:35 AM 62.1 °F - 60.8 °F 96% 29.85 in 10.0 mi Calm Calm - N/A   Clear
12:55 AM 61.7 °F - 60.1 °F 94% 29.84 in 10.0 mi Calm Calm - N/A   Clear
1:15 AM 61.7 °F - 59.9 °F 94% 29.85 in 10.0 mi Calm Calm - N/A   Clear
1:35 AM 61.3 °F - 59.5 °F 94% 29.84 in 10.0 mi Calm Calm - N/A   Clear
1:55 AM 60.6 °F - 59.2 °F 95% 29.85 in 10.0 mi Calm Calm - N/A   Clear
2:15 AM 61.0 °F - 60.1 °F 97% 29.85 in 10.0 mi Calm Calm - N/A   Clear
2:35 AM 59.5 °F - 58.5 °F 96% 29.85 in 10.0 mi Calm Calm - N/A   Clear
2:55 AM 59.4 °F - 58.1 °F 96% 29.85 in 10.0 mi Calm Calm - N/A   Clear
3:15 AM 59.4 °F - 58.3 °F 96% 29.85 in 10.0 mi Calm Calm - N/A   Clear
3:35 AM 59.4 °F - 58.6 °F 97% 29.85 in 10.0 mi Calm Calm - N/A   Clear
3:55 AM 59.0 °F - 58.5 °F 98% 29.85 in 10.0 mi Calm Calm - N/A   Clear
4:15 AM 58.6 °F - 57.9 °F 97% 29.85 in 10.0 mi Calm Calm - N/A   Clear
4:35 AM 58.5 °F - 57.7 °F 97% 29.86 in 10.0 mi Calm Calm - N/A   Clear
4:55 AM 58.1 °F - 57.7 °F 99% 29.86 in 10.0 mi Calm Calm - N/A   Clear
5:15 AM 58.5 °F - 58.1 °F 99% 29.86 in 10.0 mi Calm Calm - N/A   Clear
5:35 AM 58.1 °F - 57.6 °F 98% 29.87 in 10.0 mi Calm Calm - N/A   Clear
5:55 AM 57.2 °F - 56.7 °F 98% 29.88 in 10.0 mi Calm Calm - N/A   Clear
6:15 AM 57.2 °F - 56.7 °F 98% 29.88 in 10.0 mi Calm Calm - N/A   Clear
6:35 AM 57.6 °F - 57.2 °F 99% 29.89 in 10.0 mi Calm Calm - N/A   Clear
6:55 AM 57.4 °F - 56.8 °F 98% 29.90 in 10.0 mi Calm Calm - N/A   Clear
7:15 AM 57.4 °F - 56.8 °F 98% 29.91 in 10.0 mi Calm Calm - N/A   Clear
7:35 AM 57.7 °F - 57.2 °F 98% 29.91 in 10.0 mi Calm Calm - N/A   Clear
7:55 AM 60.6 °F - 58.3 °F 92% 29.92 in 10.0 mi Calm Calm - N/A   Clear
8:15 AM 64.0 °F - 60.1 °F 87% 29.92 in 5.0 mi Calm Calm - N/A   Clear
8:35 AM 66.4 °F - 62.1 °F 86% 29.93 in 10.0 mi Calm Calm - N/A   Clear
8:55 AM 69.8 °F - 63.3 °F 80% 29.94 in 10.0 mi Calm Calm - N/A   Clear
9:15 AM 71.6 °F - 63.9 °F 76% 29.94 in 10.0 mi Calm Calm - N/A   Clear
9:35 AM 73.6 °F - 64.6 °F 73% 29.95 in 10.0 mi Calm Calm - N/A   Clear
9:55 AM 75.7 °F - 63.1 °F 65% 29.95 in 10.0 mi Calm Calm - N/A   Clear
10:15 AM 77.9 °F - 63.9 °F 62% 29.95 in 10.0 mi SSE 3.5 mph - N/A   Clear
10:35 AM 79.3 °F - 63.7 °F 59% 29.95 in 10.0 mi SE 3.5 mph - N/A   Clear
10:55 AM 81.3 °F 82.6 °F 63.3 °F 54% 29.95 in 10.0 mi SSE 3.5 mph - N/A   Clear
11:15 AM 83.7 °F 84.7 °F 63.0 °F 50% 29.95 in 10.0 mi SSE 3.5 mph - N/A   Clear
11:35 AM 85.1 °F 85.9 °F 62.8 °F 47% 29.95 in 10.0 mi ESE 3.5 mph - N/A   Clear
11:55 AM 86.2 °F 87.1 °F 63.3 °F 46% 29.94 in 10.0 mi SE 4.6 mph - N/A   Clear
12:15 PM 87.6 °F 87.4 °F 60.4 °F 40% 29.94 in 10.0 mi South 3.5 mph - N/A   Clear
12:35 PM 88.3 °F 87.8 °F 59.5 °F 38% 29.93 in 10.0 mi SE 6.9 mph - N/A   Clear
12:55 PM 88.5 °F 87.1 °F 56.8 °F 34% 29.93 in 10.0 mi South 3.5 mph - N/A   Clear
1:15 PM 89.2 °F 87.9 °F 57.4 °F 34% 29.92 in 10.0 mi NNW 4.6 mph - N/A   Clear
1:35 PM 89.2 °F 87.7 °F 56.3 °F 33% 29.91 in 10.0 mi NE 5.8 mph - N/A   Clear
1:55 PM 90.5 °F 89.0 °F 57.0 °F 32% 29.91 in 10.0 mi ENE 3.5 mph - N/A   Clear
2:15 PM 90.1 °F 88.8 °F 57.4 °F 33% 29.90 in 10.0 mi North 4.6 mph - N/A   Clear
2:35 PM 90.9 °F 89.2 °F 56.7 °F 31% 29.89 in 10.0 mi ENE 8.1 mph - N/A   Clear
2:55 PM 90.7 °F 88.7 °F 55.6 °F 30% 29.89 in 10.0 mi Calm Calm - N/A   Clear
3:15 PM 90.7 °F 89.0 °F 56.3 °F 31% 29.88 in 10.0 mi NE 5.8 mph - N/A   Clear
3:35 PM 90.9 °F 89.7 °F 58.3 °F 33% 29.88 in 10.0 mi SE 5.8 mph - N/A   Clear
3:55 PM 90.5 °F 89.3 °F 57.4 °F 33% 29.88 in 10.0 mi SSE 3.5 mph - N/A   Clear
4:15 PM 91.2 °F 90.2 °F 58.1 °F 33% 29.88 in 10.0 mi NW 3.5 mph - N/A   Clear
4:35 PM 90.7 °F 89.5 °F 57.7 °F 33% 29.87 in 10.0 mi Calm Calm - N/A   Clear
4:55 PM 90.5 °F 89.5 °F 58.3 °F 34% 29.87 in 10.0 mi Calm Calm - N/A   Clear
5:15 PM 90.5 °F 89.5 °F 58.6 °F 34% 29.87 in 10.0 mi Calm Calm - N/A   Clear
5:35 PM 89.6 °F 88.9 °F 59.4 °F 36% 29.88 in 10.0 mi ESE 3.5 mph - N/A   Clear
5:55 PM 88.9 °F 88.8 °F 61.2 °F 39% 29.88 in 10.0 mi SSE 3.5 mph - N/A   Clear
6:15 PM 87.4 °F 86.7 °F 59.0 °F 38% 29.88 in 10.0 mi NE 5.8 mph - N/A   Clear
6:35 PM 85.3 °F 85.2 °F 60.4 °F 43% 29.88 in 10.0 mi East 3.5 mph - N/A   Clear
6:55 PM 83.3 °F 83.9 °F 61.5 °F 48% 29.89 in 10.0 mi East 3.5 mph - N/A   Clear
7:15 PM 79.9 °F - 63.0 °F 56% 29.89 in 10.0 mi Calm Calm - N/A   Clear
7:35 PM 74.7 °F - 64.0 °F 69% 29.89 in 10.0 mi Calm Calm - N/A   Clear
7:55 PM 74.1 °F - 63.5 °F 69% 29.89 in 10.0 mi Calm Calm - N/A   Clear
8:15 PM 72.1 °F - 64.4 °F 77% 29.90 in 10.0 mi Calm Calm - N/A   Clear
8:35 PM 70.7 °F - 65.3 °F 83% 29.91 in 10.0 mi Calm Calm - N/A   Clear
8:55 PM 69.3 °F - 64.9 °F 86% 29.91 in 10.0 mi Calm Calm - N/A   Clear
9:15 PM 70.0 °F - 64.6 °F 83% 29.92 in 10.0 mi Calm Calm - N/A   Clear
9:35 PM 68.9 °F - 64.9 °F 87% 29.92 in 10.0 mi Calm Calm - N/A   Clear
9:55 PM 68.4 °F - 65.1 °F 89% 29.92 in 10.0 mi Calm Calm - N/A   Clear
10:15 PM 67.1 °F - 64.0 °F 90% 29.93 in 10.0 mi Calm Calm - N/A   Clear
10:35 PM 66.2 °F - 63.5 °F 91% 29.93 in 10.0 mi Calm Calm - N/A   Clear
10:55 PM 66.2 °F - 64.0 °F 93% 29.93 in 10.0 mi Calm Calm - N/A   Clear
11:15 PM 65.8 °F - 63.7 °F 93% 29.93 in 10.0 mi Calm Calm - N/A   Clear
11:35 PM 65.7 °F - 63.7 °F 93% 29.93 in 10.0 mi Calm Calm - N/A   Clear
11:55 PM 65.7 °F - 63.9 °F 94% 29.93 in 10.0 mi Calm Calm - N/A   Clear